Colorado City, AZ

6:52 AM MST on May 30, 2017 (GMT -0700)
Colorado City Municipal

Weather History for KAZC - January, 2014

Change the Weather History Date:

Wednesday, January 1, 2014

  Actual Average (KSGU) Record (KSGU)
Temperature  
Mean Temperature 39 °F -  
Max Temperature 58 °F 50 °F 66 °F (1981)
Min Temperature 20 °F 25 °F 12 °F (1988)
Degree Days  
Heating Degree Days 26    
Moisture  
Dew Point 24 °F    
Average Humidity 70    
Maximum Humidity 94    
Minimum Humidity 27    
Precipitation  
Precipitation 0.00 in - - ()
Sea Level Pressure  
Sea Level Pressure 30.29 in    
Wind  
Wind Speed 3 mph (SE)    
Max Wind Speed 7 mph    
Max Gust Speed -    
Visibility 10 miles    
Events      
Averages and records for this station are not official NWS values.
T = Trace of Precipitation, MM = Missing Value Source: NWS Daily Summary

Daily Weather History Graph

Daily Weather History Graph

Search for Another Location

Airport or City:

Trip Planner

Search our weather history database for the weather conditions in past years. The results will help you decide how hot, cold, wet, or windy it might be!

Date:

Astronomy

Jan. 01, 2014 Rise Set
Actual Time 7:45 AM MST 5:26 PM MST
Civil Twilight 7:16 AM MST 5:55 PM MST
Nautical Twilight 6:44 AM MST 6:27 PM MST
Astronomical Twilight 6:12 AM MST 6:59 PM MST
Moon 7:40 AM MST (1/1) 6:13 PM MST (1/1)
Length of Visible Light 10h 38m
Length of Day
9h 41m
New Moon, 0% of the Moon is Illuminated
Jan 1
New Moon
Jan 7
First Quarter
Jan 15
Full
Jan 23
Last Quarter
Jan 30
New

Hourly Weather History & Observations

Time (MST) Temp. Windchill Dew Point Humidity Pressure Visibility Wind Dir Wind Speed Gust Speed Precip Events Conditions
12:15 AM 24.8 °F 19.1 °F 23.2 °F 94% 30.23 in 10.0 mi SE 4.6 mph - N/A   Clear
12:35 AM 24.6 °F 20.3 °F 23.0 °F 94% 30.23 in 10.0 mi ESE 3.5 mph - N/A   Clear
12:55 AM 24.4 °F - 22.8 °F 94% 30.24 in 10.0 mi Calm Calm - N/A   Clear
1:15 AM 24.8 °F - 22.6 °F 91% 30.23 in 10.0 mi Calm Calm - N/A   Clear
1:35 AM 24.4 °F 20.1 °F 22.3 °F 91% 30.23 in 10.0 mi SE 3.5 mph - N/A   Clear
1:55 AM 24.1 °F 17.0 °F 22.6 °F 94% 30.23 in 10.0 mi SE 5.8 mph - N/A   Clear
2:15 AM 24.6 °F 17.7 °F 23.0 °F 94% 30.23 in 10.0 mi ESE 5.8 mph - N/A   Clear
2:35 AM 24.6 °F 16.7 °F 22.6 °F 92% 30.24 in 10.0 mi East 6.9 mph - N/A   Clear
2:55 AM 25.2 °F - 22.6 °F 90% 30.24 in 10.0 mi Calm Calm - N/A   Clear
3:15 AM 25.2 °F 20.9 °F 22.5 °F 89% 30.24 in 10.0 mi SSE 3.5 mph - N/A   Clear
3:35 AM 24.6 °F 17.7 °F 22.5 °F 91% 30.25 in 10.0 mi SE 5.8 mph - N/A   Clear
3:55 AM 23.7 °F 16.6 °F 21.7 °F 92% 30.25 in 10.0 mi ESE 5.8 mph - N/A   Clear
4:15 AM 23.5 °F 17.6 °F 21.9 °F 94% 30.25 in 10.0 mi ESE 4.6 mph - N/A   Clear
4:35 AM 23.2 °F 17.2 °F 21.4 °F 93% 30.25 in 10.0 mi ESE 4.6 mph - N/A   Clear
4:55 AM 22.8 °F 18.2 °F 21.0 °F 93% 30.25 in 10.0 mi ESE 3.5 mph - N/A   Clear
5:15 AM 22.6 °F - 21.0 °F 93% 30.25 in 10.0 mi Calm Calm - N/A   Clear
5:35 AM 23.7 °F 19.3 °F 21.2 °F 90% 30.25 in 10.0 mi ESE 3.5 mph - N/A   Clear
5:55 AM 22.5 °F - 20.3 °F 91% 30.25 in 10.0 mi Calm Calm - N/A   Clear
6:15 AM 21.7 °F 15.5 °F 20.1 °F 93% 30.26 in 10.0 mi SSE 4.6 mph - N/A   Clear
6:35 AM 21.7 °F 15.5 °F 20.1 °F 93% 30.26 in 10.0 mi SSE 4.6 mph - N/A   Clear
6:55 AM 20.3 °F 12.5 °F 18.9 °F 94% 30.26 in 10.0 mi SSE 5.8 mph - N/A   Clear
7:15 AM 21.7 °F 14.3 °F 20.1 °F 93% 30.26 in 10.0 mi South 5.8 mph - N/A   Clear
7:35 AM 22.1 °F - 20.3 °F 93% 30.28 in 10.0 mi Calm Calm - N/A   Clear
7:55 AM 22.8 °F 18.2 °F 20.5 °F 91% 30.29 in 10.0 mi ESE 3.5 mph - N/A   Clear
8:15 AM 23.0 °F - 20.7 °F 91% 30.30 in 10.0 mi Calm Calm - N/A   Clear
8:35 AM 25.7 °F - 22.8 °F 89% 30.31 in 10.0 mi Calm Calm - N/A   Clear
8:55 AM 29.1 °F - 25.2 °F 85% 30.32 in 10.0 mi Calm Calm - N/A   Clear
9:15 AM 32.0 °F - 26.2 °F 79% 30.33 in 10.0 mi Calm Calm - N/A   Clear
9:35 AM 34.5 °F - 27.1 °F 74% 30.34 in 10.0 mi Calm Calm - N/A   Clear
9:55 AM 37.9 °F - 27.1 °F 65% 30.35 in 10.0 mi Calm Calm - N/A   Clear
10:15 AM 40.5 °F - 27.5 °F 60% 30.36 in 10.0 mi Calm Calm - N/A   Clear
10:35 AM 43.3 °F - 26.4 °F 51% 30.36 in 10.0 mi Calm Calm - N/A   Clear
10:55 AM 46.2 °F - 24.6 °F 43% 30.36 in 10.0 mi Calm Calm - N/A   Clear
11:15 AM 48.4 °F - 22.3 °F 36% 30.35 in 10.0 mi Calm Calm - N/A   Clear
11:35 AM 50.5 °F - 22.5 °F 33% 30.34 in 10.0 mi WNW 3.5 mph - N/A   Clear
11:55 AM 52.7 °F - 23.2 °F 32% 30.33 in 10.0 mi NNW 3.5 mph - N/A   Clear
12:15 PM 54.0 °F - 23.5 °F 31% 30.31 in 10.0 mi NW 4.6 mph - N/A   Clear
12:35 PM 55.2 °F - 23.9 °F 30% 30.30 in 10.0 mi Calm Calm - N/A   Clear
12:55 PM 55.8 °F - 23.9 °F 29% 30.28 in 10.0 mi NNW 3.5 mph - N/A   Clear
1:15 PM 56.7 °F - 24.3 °F 29% 30.27 in 10.0 mi NW 5.8 mph - N/A   Clear
1:35 PM 57.6 °F - 24.3 °F 28% 30.27 in 10.0 mi NW 3.5 mph - N/A   Clear
1:55 PM 57.6 °F - 24.1 °F 28% 30.26 in 10.0 mi NNW 4.6 mph - N/A   Clear
2:15 PM 57.9 °F - 24.3 °F 27% 30.25 in 10.0 mi Calm Calm - N/A   Clear
2:35 PM 58.3 °F - 24.4 °F 27% 30.25 in 10.0 mi NW 4.6 mph - N/A   Clear
2:55 PM 58.8 °F - 24.3 °F 27% 30.25 in 10.0 mi NW 4.6 mph - N/A   Clear
3:15 PM 58.5 °F - 24.8 °F 27% 30.25 in 10.0 mi NW 6.9 mph - N/A   Clear
3:35 PM 58.5 °F - 24.8 °F 27% 30.25 in 10.0 mi WNW 4.6 mph - N/A   Clear
3:55 PM 58.3 °F - 25.2 °F 28% 30.25 in 10.0 mi WNW 6.9 mph - N/A   Clear
4:15 PM 57.9 °F - 25.7 °F 29% 30.26 in 10.0 mi West 4.6 mph - N/A   Clear
4:35 PM 57.2 °F - 25.7 °F 30% 30.26 in 10.0 mi WNW 5.8 mph - N/A   Clear
4:55 PM 55.6 °F - 26.1 °F 32% 30.26 in 10.0 mi NW 3.5 mph - N/A   Clear
5:15 PM 53.4 °F - 26.1 °F 35% 30.27 in 10.0 mi NW 4.6 mph - N/A   Clear
5:35 PM 49.3 °F - 25.7 °F 40% 30.27 in 10.0 mi SSE 4.6 mph - N/A   Clear
5:55 PM 41.9 °F - 27.1 °F 56% 30.28 in 10.0 mi Calm Calm - N/A   Clear
6:15 PM 38.5 °F 35.0 °F 27.5 °F 65% 30.29 in 10.0 mi SE 4.6 mph - N/A   Clear
6:35 PM 35.2 °F 32.4 °F 27.5 °F 73% 30.30 in 10.0 mi SE 3.5 mph - N/A   Clear
6:55 PM 33.4 °F 30.4 °F 27.3 °F 78% 30.30 in 10.0 mi SE 3.5 mph - N/A   Clear
7:15 PM 32.0 °F - 27.0 °F 82% 30.31 in 10.0 mi Calm Calm - N/A   Clear
7:35 PM 31.3 °F 27.9 °F 26.8 °F 83% 30.31 in 10.0 mi ESE 3.5 mph - N/A   Clear
7:55 PM 30.7 °F - 26.6 °F 85% 30.31 in 10.0 mi Calm Calm - N/A   Clear
8:15 PM 30.9 °F 26.2 °F 26.4 °F 83% 30.32 in 10.0 mi SE 4.6 mph - N/A   Clear
8:35 PM 29.8 °F 26.3 °F 26.2 °F 86% 30.32 in 10.0 mi SSE 3.5 mph - N/A   Clear
8:55 PM 29.5 °F - 25.9 °F 86% 30.32 in 10.0 mi Calm Calm - N/A   Clear
9:15 PM 28.8 °F - 25.5 °F 88% 30.33 in 10.0 mi Calm Calm - N/A   Clear
9:35 PM 28.4 °F - 25.2 °F 88% 30.32 in 10.0 mi Calm Calm - N/A   Clear
9:55 PM 26.6 °F - 24.3 °F 91% 30.33 in 10.0 mi Calm Calm - N/A   Clear
10:15 PM 26.1 °F 21.9 °F 23.9 °F 92% 30.33 in 10.0 mi SSE 3.5 mph - N/A   Clear
10:35 PM 26.2 °F - 24.1 °F 92% 30.34 in 10.0 mi Calm Calm - N/A   Clear
10:55 PM 26.4 °F 22.4 °F 23.9 °F 90% 30.34 in 10.0 mi ENE 3.5 mph - N/A   Clear
11:15 PM 26.6 °F - 23.9 °F 90% 30.34 in 10.0 mi Calm Calm - N/A   Clear
11:35 PM 25.2 °F - 22.8 °F 91% 30.34 in 10.0 mi Calm Calm - N/A   Clear
11:55 PM 25.2 °F - 22.8 °F 91% 30.34 in 10.0 mi Calm Calm - N/A   Clear